DW8790 Maspalomas ES current weather conditions

sailwx.info

Wind from 204 at 2 knots gusting 6

Air temperature 25.0° C
Dewpoint 18.2° C

Last reported at 2014-Sep-30 19:50 UTC.
Time now 2014-Sep-30 20:09 UTC

Location: N 27°46' W 015°34'.
View on Google Maps.

See reports from other nearby stations

  
Tides and Currents Weather Stations Pressure Air Temp Water Temp Dewpoint Dewpoint Depression Visibility Wind Speed Wind Dir Waves Ship Positions
date/time (UTC)wind fromknots sea level pressurealtimeterstation pressurevisibilityair tempwater tempwave heightnotes
2014-Sep-30 19:50 204 2 gusting 6 25.0
2014-Sep-30 19:40 264 2 gusting 6 25.0
2014-Sep-30 19:30 283 3 gusting 6 25.0
2014-Sep-30 19:20 269 2 gusting 6 25.0
2014-Sep-30 19:10 301 0 gusting 4 25.0
2014-Sep-30 19:00 294 3 gusting 7 25.6
2014-Sep-30 18:50 283 4 gusting 8 25.6
2014-Sep-30 18:40 272 3 gusting 7 26.1
2014-Sep-30 18:30 283 4 gusting 6 26.1
2014-Sep-30 18:20 267 3 gusting 5 26.7
2014-Sep-30 18:10 277 2 gusting 6 26.7
2014-Sep-30 18:00 285 2 gusting 6 26.7
2014-Sep-30 17:50 271 1 gusting 8 26.7
2014-Sep-30 17:40 274 5 gusting 8 26.7
2014-Sep-30 17:30 266 3 gusting 6 27.2
2014-Sep-30 17:20 276 2 gusting 6 27.2
2014-Sep-30 17:10 284 4 gusting 7 26.7
2014-Sep-30 17:00 255 3 gusting 7 26.7
2014-Sep-30 16:50 243 4 gusting 11 26.7
2014-Sep-30 16:40 244 4 gusting 8 26.7
2014-Sep-30 16:30 227 5 gusting 11 26.1
2014-Sep-30 16:20 163 6 gusting 11 26.7
2014-Sep-30 16:10 163 5 gusting 10 27.2
2014-Sep-30 16:00 224 2 gusting 8 27.2
2014-Sep-30 15:50 191 3 gusting 8 27.2
2014-Sep-30 15:40 239 5 gusting 8 27.2
2014-Sep-30 15:30 243 6 gusting 10 27.2
2014-Sep-30 15:20 239 6 gusting 10 27.2
2014-Sep-30 15:10 229 5 gusting 12 26.7
2014-Sep-30 15:00 245 7 gusting 13 26.7
2014-Sep-30 14:50 261 10 gusting 17 26.7
2014-Sep-30 14:40 243 8 gusting 18 26.7
2014-Sep-30 14:30 252 10 gusting 18 26.7
2014-Sep-30 14:20 255 10 gusting 14 27.2
2014-Sep-30 14:10 261 7 gusting 17 26.7
2014-Sep-30 14:00 265 8 gusting 15 27.8
2014-Sep-30 13:50 255 7 gusting 13 27.2
2014-Sep-30 13:40 250 8 gusting 13 27.2
2014-Sep-30 13:30 222 6 gusting 11 27.2
2014-Sep-30 13:20 254 8 gusting 12 26.7
2014-Sep-30 13:10 260 7 gusting 13 26.7
2014-Sep-30 13:00 252 8 gusting 14 26.7
2014-Sep-30 12:50 247 8 gusting 13 26.7
2014-Sep-30 12:40 256 8 gusting 12 27.2
2014-Sep-30 12:30 249 6 gusting 13 26.7
2014-Sep-30 12:20 242 6 gusting 12 26.7
2014-Sep-30 12:10 255 7 gusting 11 26.7
2014-Sep-30 12:00 224 5 gusting 10 26.7
2014-Sep-30 11:50 252 6 gusting 12 26.7
2014-Sep-30 11:40 200 4 gusting 10 27.2
2014-Sep-30 11:30 201 4 gusting 12 27.2
2014-Sep-30 11:20 240 4 gusting 12 27.2
2014-Sep-30 11:10 248 4 gusting 10 26.7
2014-Sep-30 11:00 207 4 gusting 8 26.7
2014-Sep-30 10:50 204 2 gusting 7 26.7
2014-Sep-30 10:40 199 3 gusting 7 26.1
2014-Sep-30 10:30 237 4 gusting 8 26.7
2014-Sep-30 10:20 227 4 gusting 8 26.1
2014-Sep-30 10:10 277 5 gusting 6 26.1
2014-Sep-30 10:00 234 5 gusting 10 26.1
2014-Sep-30 09:50 223 3 gusting 6 26.1
2014-Sep-30 09:40 133 2 gusting 6 25.6
2014-Sep-30 09:30 247 2 gusting 6 25.6
2014-Sep-30 09:20 229 2 gusting 6 25.0
2014-Sep-30 09:10 276 2 gusting 4 25.0
2014-Sep-30 09:00 283 2 gusting 4 25.0
2014-Sep-30 08:50 253 3 gusting 4 25.6
2014-Sep-30 08:40 285 1 gusting 4 25.6
2014-Sep-30 08:30 314 0 gusting 2 25.0
2014-Sep-30 08:20 315 2 gusting 4 24.4
2014-Sep-30 08:10 341 4 gusting 5 23.9
2014-Sep-30 08:00 343 1 gusting 5 23.3
2014-Sep-30 07:50 351 1 gusting 5 22.8
2014-Sep-30 07:40 345 1 gusting 5 22.2
2014-Sep-30 07:30 348 2 gusting 5 21.7
2014-Sep-30 07:20 342 2 gusting 4 21.1
2014-Sep-30 07:10 339 2 gusting 6 21.1
2014-Sep-30 07:00 354 2 gusting 5 21.1
2014-Sep-30 06:50 348 2 gusting 5 21.1
2014-Sep-30 06:40 343 2 gusting 5 21.1
2014-Sep-30 06:30 008 3 gusting 4 21.1
2014-Sep-30 06:20 345 3 gusting 6 21.7
2014-Sep-30 06:10 343 2 gusting 6 21.7
2014-Sep-30 06:00 341 2 gusting 6 21.7
2014-Sep-30 05:50 340 4 gusting 5 21.7
2014-Sep-30 04:50 303 0 gusting 2 21.1
2014-Sep-30 04:40 350 0 gusting 2 21.1
2014-Sep-30 04:30 357 1 gusting 2 21.1
2014-Sep-30 04:20 350 2 gusting 4 20.6
2014-Sep-30 04:10 291 1 gusting 2 21.1
2014-Sep-30 04:00 011 1 gusting 2 21.1
2014-Sep-30 03:50 011 21.1
2014-Sep-30 03:40 011 0 gusting 2 21.7
2014-Sep-30 03:30 011 21.7
2014-Sep-30 03:20 011 1 gusting 2 21.7
2014-Sep-30 03:10 357 1 gusting 4 21.7
2014-Sep-30 03:00 333 3 gusting 5 21.7
2014-Sep-30 02:50 329 1 gusting 2 21.1
2014-Sep-30 02:40 329 1 gusting 2 21.7
2014-Sep-30 02:30 329 21.7
2014-Sep-30 02:20 329 21.7
2014-Sep-30 02:10 329 0 gusting 2 21.7
2014-Sep-30 02:00 329 0 gusting 2 21.7
2014-Sep-30 01:50 323 1 gusting 4 21.7
2014-Sep-30 01:40 283 2 gusting 2 21.7
2014-Sep-30 01:30 322 2 gusting 4 21.7
2014-Sep-30 01:10 309 0 gusting 2 22.2
2014-Sep-30 01:00 309 22.2
2014-Sep-30 00:50 309 22.2
2014-Sep-30 00:40 309 0 gusting 2 22.2
2014-Sep-30 00:30 011 0 gusting 2 22.2
2014-Sep-30 00:20 306 1 gusting 2 22.2
2014-Sep-30 00:10 298 22.2
2014-Sep-30 00:00 298 0 gusting 4 22.2
2014-Sep-29 23:50 323 1 gusting 2 22.2
2014-Sep-29 23:40 324 1 gusting 4 22.2
2014-Sep-29 23:30 319 1 gusting 4 22.2
2014-Sep-29 23:20 305 2 gusting 4 22.2
2014-Sep-29 23:10 278 2 gusting 4 22.8
2014-Sep-29 23:00 318 2 gusting 4 22.8
2014-Sep-29 22:50 319 2 gusting 5 22.8
2014-Sep-29 22:40 316 2 gusting 4 22.8
2014-Sep-29 22:30 295 1 gusting 4 22.8
2014-Sep-29 22:20 269 1 gusting 2 22.8
2014-Sep-29 22:10 269 23.3
2014-Sep-29 22:00 236 1 gusting 2 23.3
2014-Sep-29 21:50 236 1 gusting 5 23.3
2014-Sep-29 21:40 264 3 gusting 4 23.3
2014-Sep-29 21:30 252 1 gusting 4 23.3
2014-Sep-29 21:20 235 1 gusting 5 23.3
2014-Sep-29 21:10 258 2 gusting 5 23.3
2014-Sep-29 21:00 244 5 gusting 6 23.9
2014-Sep-29 20:50 230 1 gusting 5 23.9
2014-Sep-29 20:40 257 2 gusting 4 23.9
2014-Sep-29 20:30 272 2 gusting 5 23.9
2014-Sep-29 20:20 283 4 gusting 7 23.9
2014-Sep-29 20:10 280 2 gusting 6 23.9
2014-Sep-29 20:00 271 3 gusting 6 23.9
2014-Sep-29 19:50 269 3 gusting 7 23.9
2014-Sep-29 19:40 274 4 gusting 7 24.4
2014-Sep-29 19:30 282 4 gusting 8 24.4
2014-Sep-29 19:20 297 2 gusting 5 24.4
2014-Sep-29 19:10 282 1 gusting 6 24.4
2014-Sep-29 19:00 261 4 gusting 7 24.4
2014-Sep-29 18:20 291 2 gusting 6 25.6
2014-Sep-29 18:00 279 6 gusting 8 26.1
2014-Sep-29 17:50 261 2 gusting 6 26.1
2014-Sep-29 17:40 246 6 gusting 13 25.6
2014-Sep-29 17:30 230 6 gusting 10 26.1
2014-Sep-29 17:20 242 1 gusting 11 26.1
2014-Sep-29 17:00 194 4 gusting 8 26.7
2014-Sep-29 16:50 188 5 gusting 10 26.7
2014-Sep-29 16:40 231 5 gusting 8 26.7
2014-Sep-29 16:30 226 2 gusting 10 26.7
2014-Sep-29 16:20 201 6 gusting 10 26.7
2014-Sep-29 16:10 188 5 gusting 10 26.7
2014-Sep-29 16:00 185 5 gusting 10 26.7
2014-Sep-29 15:50 257 7 gusting 12 26.7
2014-Sep-29 15:40 236 6 gusting 11 27.2
2014-Sep-29 15:30 250 6 gusting 13 27.2
2014-Sep-29 15:20 221 8 gusting 15 27.2
2014-Sep-29 15:10 247 9 gusting 13 27.2
2014-Sep-29 15:00 256 7 gusting 13 27.2
2014-Sep-29 14:50 243 8 gusting 13 27.8
2014-Sep-29 14:40 251 6 gusting 13 27.8
2014-Sep-29 14:30 229 7 gusting 13 28.3
2014-Sep-29 14:20 204 6 gusting 12 28.3
2014-Sep-29 14:10 260 6 gusting 13 27.8
2014-Sep-29 14:00 264 8 gusting 13 28.3
2014-Sep-29 13:50 252 8 gusting 14 28.3
2014-Sep-29 13:40 276 9 gusting 14 29.4
2014-Sep-29 13:30 277 8 gusting 13 28.9
2014-Sep-29 12:40 015 3 gusting 22 29.4
2014-Sep-29 12:30 112 12 gusting 18 30.0
2014-Sep-29 12:20 123 7 gusting 13 28.9
2014-Sep-29 12:10 346 1 gusting 8 28.3
2014-Sep-29 12:00 173 2 gusting 7 27.8
2014-Sep-29 11:50 201 2 gusting 8 27.8
2014-Sep-29 11:40 264 4 gusting 10 27.2
2014-Sep-29 11:30 333 5 gusting 11 27.2
2014-Sep-29 11:20 232 7 gusting 12 27.2
2014-Sep-29 11:10 231 5 gusting 7 26.7
2014-Sep-29 11:00 199 2 gusting 6 26.7
2014-Sep-29 10:50 229 4 gusting 8 26.7
2014-Sep-29 10:40 269 3 gusting 8 26.7
2014-Sep-29 10:30 280 4 gusting 8 26.7
2014-Sep-29 10:10 274 6 gusting 10 26.1
2014-Sep-29 10:00 270 4 gusting 6 26.1
2014-Sep-29 09:50 259 4 gusting 6 26.1
2014-Sep-29 09:40 279 26.1
2014-Sep-29 09:30 314 1 gusting 5 26.1
2014-Sep-29 09:20 231 26.1
2014-Sep-29 09:10 231 0 gusting 1 26.1
2014-Sep-29 09:00 092 1 gusting 4 26.1
2014-Sep-29 08:50 164 26.1
2014-Sep-29 08:40 081 2 gusting 6 26.1
2014-Sep-29 08:30 094 2 gusting 6 26.1
2014-Sep-29 08:20 108 3 gusting 6 25.6
2014-Sep-29 08:10 089 1 gusting 4 25.0
2014-Sep-29 08:00 336 24.4
2014-Sep-29 07:40 335 1 gusting 2 22.8
2014-Sep-29 07:30 005 22.2
2014-Sep-29 07:20 005 21.1
2014-Sep-29 07:00 005 21.1
2014-Sep-29 06:50 005 21.1
2014-Sep-29 06:40 005 1 gusting 2 21.7
2014-Sep-29 06:30 005 1 gusting 2 21.1
2014-Sep-29 06:10 101 21.1
2014-Sep-29 06:00 101 21.1
2014-Sep-29 05:50 101 21.1
2014-Sep-29 04:50 116 20.6
2014-Sep-29 04:40 116 21.1
2014-Sep-29 04:30 116 21.1
2014-Sep-29 04:20 116 21.1
2014-Sep-29 04:10 116 21.7
2014-Sep-29 04:00 116 21.7
2014-Sep-29 03:40 098 2 gusting 6 22.2
2014-Sep-29 03:30 062 1 gusting 4 22.2
2014-Sep-29 03:10 053 3 gusting 6 21.7
2014-Sep-29 03:00 059 1 gusting 4 21.7
2014-Sep-29 02:50 084 1 gusting 6 22.2
2014-Sep-29 02:40 101 4 gusting 8 22.2
2014-Sep-29 02:30 092 6 gusting 8 22.2
2014-Sep-29 02:20 088 5 gusting 7 22.8
2014-Sep-29 02:10 066 4 gusting 7 22.8
2014-Sep-29 02:00 064 5 gusting 6 22.2
2014-Sep-29 01:50 076 3 gusting 5 22.2
2014-Sep-29 01:40 062 1 gusting 2 22.2
2014-Sep-29 01:30 062 1 gusting 4 22.8
2014-Sep-29 01:20 080 2 gusting 6 22.8
2014-Sep-29 01:10 075 4 gusting 6 22.8
2014-Sep-29 00:50 097 1 gusting 4 22.2
2014-Sep-29 00:40 064 22.2
2014-Sep-29 00:30 064 22.2
2014-Sep-29 00:20 064 1 gusting 2 22.2
2014-Sep-29 00:10 061 0 gusting 2 22.2
2014-Sep-29 00:00 061 1 gusting 4 22.2
2014-Sep-28 23:50 080 22.2
2014-Sep-28 23:40 068 1 gusting 2 22.2
2014-Sep-28 23:30 097 0 gusting 4 22.8
2014-Sep-28 23:20 097 2 gusting 4 22.8
2014-Sep-28 23:00 108 0 gusting 2 22.8
2014-Sep-28 22:40 089 2 gusting 6 22.8
2014-Sep-28 22:30 094 3 gusting 6 22.8
2014-Sep-28 22:20 098 1 gusting 4 22.8
2014-Sep-28 22:10 098 0 gusting 2 22.8
2014-Sep-28 22:00 098 1 gusting 5 22.8
2014-Sep-28 21:50 111 2 gusting 2 23.3
2014-Sep-28 21:40 238 23.3
2014-Sep-28 21:30 238 23.3
2014-Sep-28 21:20 238 0 gusting 2 23.3
2014-Sep-28 21:10 238 0 gusting 2 23.3
2014-Sep-28 21:00 238 0 gusting 4 23.9
2014-Sep-28 20:50 238 0 gusting 2 23.9
2014-Sep-28 20:40 238 0 gusting 4 23.9
2014-Sep-28 20:20 221 2 gusting 5 23.9
2014-Sep-28 20:10 224 1 gusting 4 23.9
2014-Sep-28 20:00 225 2 gusting 4 23.9